Location: ??????
(41.3164°N, 22.6615°E)
Time: 20:58:05
(UTC+00:00)

STRAND 1 - Visible Passes

Search period start: 27 June 2022 00:00
Search period end: 07 July 2022 00:00
Orbit: 768 x 780 km, 98.4° (Epoch: 27 June)

Date Brightness Start Highest point End Pass type
(mag) Time Alt. Az. Time Alt. Az. Time Alt. Az.
27 Jun ? 18:41:55 10° NNW 18:45:59 24° WNW 18:50:02 10° WSW visible
29 Jun ? 19:14:05 10° NNW 19:16:24 13° WNW 19:18:43 10° W visible
30 Jun ? 18:38:28 10° N 18:42:38 26° WNW 18:46:46 10° WSW visible
02 Jul ? 19:10:28 10° NNW 19:13:04 14° WNW 19:15:38 10° W visible
03 Jul ? 18:35:00 10° N 18:39:17 27° WNW 18:43:32 10° WSW visible
05 Jul ? 19:06:54 10° NNW 19:09:43 15° WNW 19:12:31 10° W visible
06 Jul ? 18:31:33 10° N 18:35:55 29° WNW 18:40:15 10° SW visible
